Regional Weather Roundup
Issued by NWS

Home | Current Version | Previous Version | Graphics & Text | Print | Product List | Glossary On
Versions: 1 2 3 4 5 6 7 8 9 10 11 12 13 14 15 16 17 18 19 20 21 22 23 24 25 26 27 28 29 30 31 32 33 34 35 36 37 38 39 40 41 42 43 44 45 46 47 48 49 50
000
ASUS43 KDTX 202110
RWRMI
MICHIGAN HOURLY REGIONAL WEATHER ROUNDUP
NATIONAL WEATHER SERVICE DETROIT/PONTIAC MI
500 PM EDT SUN APR 20 2014

NOTE: "FAIR" INDICATES FEW OR NO CLOUDS BELOW 12,000 FEET WITH NO
SIGNIFICANT WEATHER AND/OR OBSTRUCTION TO VISIBILITY.

MIZ047>049-052>055-059>063-066>070-074>076-081>083-202200-
SOUTHEAST LOWER MICHIGAN

CITY           SKY/WX    TMP DP  RH WIND       PRES   REMARKS
ADRIAN         SUNNY     71  28  20 SW7       30.17F
ALMA           SUNNY     70  29  21 SW6       30.14F
ANN ARBOR      SUNNY     72  24  16 S12       30.16F
BAD AXE        SUNNY     71  28  20 SW12G18   30.15F
CARO           SUNNY     74  24  16 S9        30.13F
DETROIT CITY   MOSUNNY   71  30  21 SE10      30.17F
DETROIT        PTSUNNY   71  32  23 SE7       30.17F
FLINT          MOSUNNY   72  27  18 S9        30.15F
GROSSE ILE     SUNNY     66  27  22 SE6       30.17F
HILLSDALE      SUNNY     72  21  14 S8        30.16F
HOWELL         MOSUNNY   72  25  17 S8        30.15F

CITY           SKY/WX    TMP DP  RH WIND       PRES   REMARKS
JACKSON        SUNNY     72  23  16 S9        30.15F
LAMBERTVILLE   SUNNY     70  36  28 E6        30.17F
LANSING        SUNNY     73  27  18 SW12      30.15F
LAPEER         FAIR      70  21  15 SW6G17    30.16F
MASON          SUNNY     72  28  19 S8        30.15F
MONROE         SUNNY     66  36  32 SE6       30.17S
MT. CLEMENS    PTSUNNY   67  35  29 SE13      30.16F
PONTIAC        PTSUNNY   69  24  18 S7        30.16F
PORT HOPE        N/A     54  37  52 CALM      30.14F
PORT HURON     SUNNY     68  34  28 SW8       30.18F
TRI CITIES     SUNNY     73  29  19 SW9       30.14F
TROY           MOSUNNY   70  26  19 SE5       30.17F
SAGINAW HB     SUNNY     73  27  17 SW13      30.14S
YPSILANTI      SUNNY     75  23  14 SW7       30.17F
$$
MIZ043>046-050>051-056>058-064>065-071>073-077>080-202200-
SOUTHWEST LOWER MICHIGAN

CITY           SKY/WX    TMP DP  RH WIND       PRES   REMARKS
BATTLE CREEK   SUNNY     71  30  21 SW12G18   30.16F
BENTON HARBOR  MOSUNNY   71  37  28 W8        30.13F
BIG RAPIDS     SUNNY     71  36  27 SW12G18   30.11F
COLDWATER      SUNNY     70  25  18 SW7       30.15F
FREMONT        FAIR      70  33  24 SW12      30.11F
HOLLAND        MOSUNNY   73  35  25 SW13      30.14F
GRAND RAPIDS   MOSUNNY   72  34  24 S8        30.13F
IONIA          FAIR      71  24  17 SW7       30.13F
KALAMAZOO      SUNNY     72  27  18 S9        30.15F
LUDINGTON      MOSUNNY   59  35  39 SW9       30.12S
MARSHALL       SUNNY     72  29  20 S8        30.14F
MOUNT PLEASANT MOSUNNY   72  30  21 S9        30.12F
MUSKEGON       MOSUNNY   69  33  26 S16       30.13F
SOUTH HAVEN    MOSUNNY   72  33  23 W8        30.13F
$$
MIZ016>042-202200-
NORTHERN LOWER MICHIGAN

CITY           SKY/WX    TMP DP  RH WIND       PRES   REMARKS
ALPENA         LGT RAIN  47  37  68 NE6       30.14S
BEAVER ISLAND  CLOUDY    43  34  71 SW8       30.09F
BELLAIRE       LGT RAIN  61  39  44 CALM      30.08F
CADILLAC       PTSUNNY   69  39  33 SW9G16    30.10S
CHARLEVOIX     CLOUDY    47  38  70 NW3       30.13R
FRANKFORT      CLOUDY    53  34  48 SW9       30.11F
GAYLORD        CLOUDY    62  37  39 SW9       30.10F
GRAYLING       CLOUDY    68  32  26 SW7       30.11F
HARBOR SPRINGS CLOUDY    55  46  71 W3        30.08F
HOUGHTON LAKE  PTSUNNY   70  33  25 SW7       30.11F
MANISTEE       MOSUNNY   68  36  30 SW12G17   30.11F
OSCODA         PTSUNNY   65  26  22 S10       30.13F
PELLSTON       CLOUDY    52  45  77 CALM      30.10F
ROGERS CITY    RAIN      52  46  78 SE6       30.12F
TRAVERSE CITY  CLOUDY    68  36  30 SW7       30.07F
$$
MIZ007>008-015-202200-
EASTERN UPPER MICHIGAN

CITY           SKY/WX    TMP DP  RH WIND       PRES   REMARKS
KINROSS        CLOUDY    41  39  93 SE3       30.10F
MACKINAC ISLAN CLOUDY    42  41  99 NE3       30.09F FOG
NEWBERRY       CLOUDY    39  35  86 SW12      30.07S WCI  32
S. S. MARIE    CLOUDY    39  37  92 E5        30.10F FOG
MUNISING         N/A     55  41  59 S8        30.01F
$$
MIZ004>006-011>014-085-202200-
CENTRAL UPPER MICHIGAN

CITY           SKY/WX    TMP DP  RH WIND       PRES   REMARKS
MANISTIQUE     LGT RAIN  37  34  89 S8        30.07F WCI  30
ESCANABA       CLOUDY    39  36  87 S6        30.05F WCI  35
MENOMINEE      CLOUDY    50  46  87 SW9       30.05F
SAWYER-GWINN   SUNNY     63  46  55 S12       30.02S
$$
MIZ001>003-009>011-084-202200-
WESTERN UPPER MICHIGAN

CITY           SKY/WX    TMP DP  RH WIND       PRES   REMARKS
IRON MOUNTAIN  PTSUNNY   60  49  66 S10       29.99F
HOUGHTON       SUNNY     51  36  56 NW15      29.99F
COPPER HARBOR    N/A     39  33  79 VRB3      30.01S
IRONWOOD       SUNNY     61  37  41 N10       29.96F
$$

ABBREVIATIONS USED IN REMARKS
   TC - TEMPERATURE IN CELSIUS
  WCI - WIND CHILL INDEX
   HX - HEAT INDEX
  VSB - VISIBILITY




USA.gov is the U.S. government's official web portal to all federal, state and local government web resources and services.